Regional Weather Roundup
Issued by NWS

Home | Current Version | Previous Version | Graphics & Text | Print | Product List | Glossary On
Versions: 1 2 3 4 5 6 7 8 9 10 11 12 13 14 15 16 17 18 19 20 21 22 23 24 25 26 27 28 29 30 31 32 33 34 35 36 37 38 39 40 41 42 43 44 45 46 47 48 49 50
000
ASUS43 KOAX 180202
RWRNE

WEATHER ROUNDUP FOR NEBRASKA
NATIONAL WEATHER SERVICE OMAHA NE
900 PM CDT THU AUG 17 2017

NOTES: SATELLITE DATA IS BEING USED TO AUGMENT CLOUD COVER ABOVE
       12000 FEET.
       "FAIR" INDICATES FEW OR NO CLOUDS BELOW 12,000 FEET WITH NO
       SIGNIFICANT WEATHER AND/OR OBSTRUCTIONS TO VISIBILITY.


NEZ001>004-019>022-054>056-180300-
NEBRASKA PANHANDLE

CITY           SKY/WX    TMP DP  RH WIND       PRES   REMARKS
SCOTTSBLUFF    PTCLDY    73  47  39 NE17      30.00R
ALLIANCE       CLOUDY    68  49  50 MISG      29.99R
CHADRON        CLOUDY    67  52  58 NE7       29.99R
GORDON         FAIR      66  52  60 N14G22    29.98F
KIMBALL        CLEAR     69  50  49 W8        30.06R
SIDNEY         CLEAR     68  48  48 S5        30.01S
$$

NEZ057>060-069>072-079>082-180300-
SOUTHWEST NEBRASKA

CITY           SKY/WX    TMP DP  RH WIND       PRES   REMARKS
NORTH PLATTE   CLOUDY    78  61  55 S6        29.92R
IMPERIAL       CLOUDY    67  60  78 SE9       29.98R
LEXINGTON      MOCLDY    73  63  70 SE8       29.93S
MCCOOK         LGT RAIN  73  57  57 W30G38    29.99R
OGALLALA       CLOUDY    73  57  59 SW5       29.94R
$$

NEZ005>010-023>029-035>040-094-180300-
NORTH CENTRAL NEBRASKA

CITY           SKY/WX    TMP DP  RH WIND       PRES   REMARKS
VALENTINE      CLOUDY    77  49  37 NW38G53   29.89R
AINSWORTH      CLEAR     72  60  65 S8        29.87F
BROKEN BOW     CLEAR     76  60  57 S7        29.92S
O`NEILL        CLEAR     73  63  68 S7        29.88F
ORD            CLEAR     74  59  59 S6        29.90R
THEDFORD       CLEAR     79  59  51 S10       29.91S
$$

NEZ041-046>049-061>064-073>077-083>087-180300-
SOUTH CENTRAL NEBRASKA

CITY           SKY/WX    TMP DP  RH WIND       PRES   REMARKS
GRAND ISLAND   CLEAR     72  66  81 S7        29.93F
AURORA         CLEAR     74  66  76 S5        29.92F
HASTINGS       CLEAR     76  61  59 S3        29.95S
HEBRON         CLEAR     73  66  78 S6        29.94S
HOLDREGE       CLEAR     70  61  73 SE6       29.94F
KEARNEY        CLOUDY    72  65  78 S8        29.94F
YORK           CLEAR     70  66  88 S6        29.93S
$$

NEZ011>018-030>034-042>045-180300-
NORTHEAST NEBRASKA

CITY           SKY/WX    TMP DP  RH WIND       PRES   REMARKS
NORFOLK        CLEAR     70  64  81 SE7       29.89F
ALBION         CLEAR     73  66  80 SE3       29.91S
BLAIR          RAIN      73  65  74 CALM      29.92R
COLUMBUS       CLEAR     72  67  84 S6        29.91S
FREMONT        CLEAR     73  64  72 CALM      29.91S
TEKAMAH        CLEAR     68  65  90 SW5       29.90R
WAYNE          CLEAR     67  65  91 CALM      29.90F
$$

NEZ050>053-065>068-078-088>093-180300-
SOUTHEAST NEBRASKA

CITY           SKY/WX    TMP DP  RH WIND       PRES   REMARKS
LINCOLN        CLEAR     75  65  70 S3        29.92S
OMAHA EPPLEY   CLEAR     77  62  59 CALM      29.90S
BEATRICE       CLEAR     75  63  65 CALM      29.93S
FALLS CITY     CLEAR     74  61  63 SW3       29.92R
NEBRASKA CITY  CLEAR     74  63  66 SW3       29.93S
PLATTSMOUTH    CLEAR     73  61  65 CALM      29.91F
$$

NEZ044-045-051>053-067-180300-
OMAHA AREA

CITY           SKY/WX    TMP DP  RH WIND       PRES   REMARKS
OMAHA EPPLEY   CLEAR     77  62  59 CALM      29.90S
BLAIR          RAIN      73  65  74 CALM      29.92R
FREMONT        CLEAR     73  64  72 CALM      29.91S
MILLARD        CLEAR     73  65  76 CALM      29.91S
OFFUTT AFB     CLEAR     69  61  75 CALM      29.90S
PLATTSMOUTH    CLEAR     73  61  65 CALM      29.91F
WAHOO          FAIR      71  67  84 SE5       29.91S
$$




USA.gov is the U.S. government's official web portal to all federal, state and local government web resources and services.